Location: Newark
(34.7000°S, 31.1997°W)
Time: 14:16:37
(UTC+00:00)

Hubble Space Telescope - Visible Passes

Search period start: 07 April 2020 00:00
Search period end: 17 April 2020 00:00
Orbit: 536 x 540 km, 28.5° (Epoch: 07 April)

Date Brightness Start Highest point End Pass type
(mag) Time Alt. Az. Time Alt. Az. Time Alt. Az.
10 Apr 3.6 06:44:17 10° NNE 06:44:40 10° NNE 06:45:02 10° NNE visible
11 Apr 3.3 06:32:56 12° N 06:33:52 13° NNE 06:35:45 10° NE visible
12 Apr 3.1 06:23:08 15° NNE 06:23:08 15° NNE 06:25:37 10° ENE visible
12 Apr 2.3 08:00:06 10° NW 08:03:47 30° N 08:07:30 10° ENE visible
13 Apr 3.1 06:13:16 17° NE 06:13:16 17° NE 06:15:16 10° ENE visible
13 Apr 2.1 07:49:20 10° WNW 07:53:04 32° N 07:56:50 10° ENE visible
14 Apr 3.3 06:03:22 17° NE 06:03:22 17° NE 06:04:49 10° ENE visible
14 Apr 2.0 07:38:42 11° WNW 07:42:22 34° N 07:46:10 10° ENE visible
15 Apr 3.6 05:53:25 14° ENE 05:53:25 14° ENE 05:54:17 10° ENE visible
15 Apr 1.9 07:28:45 15° WNW 07:31:40 35° N 07:35:29 10° ENE visible
16 Apr 3.9 05:43:27 11° ENE 05:43:27 11° ENE 05:43:42 10° ENE visible
16 Apr 1.9 07:18:47 20° NW 07:20:57 34° N 07:24:46 10° ENE visible
